Location: Dompnac
(44.5644°N, 4.1026°E)
Time: 11:13:13
(UTC+00:00)

NOSS 3-2 (C) - Pass Details

Date: 19 September 2020
Orbit: 795 x 1418 km, 63.4° (Epoch: 25 October)

Event Time Altitude Azimuth Distance (km) Brightness Sun altitude
Rises 19:49:50 0° 322° (NW) 3,954 7.7 -22.1°
Reaches altitude 10° 19:52:24 10° 325° (NW) 3,077 6.9 -22.6°
Maximum altitude 19:59:56 75° 50° (NE) 1,327 4.0 -23.8°
Enters shadow 20:03:04 43° 126° (SE) 1,797 4.3 -24.2°
